• In Österreich
  • Länderverzeichnis
  • Für 7 Tage
  • Wassertemperatur
  • Satellitenkarten
  • Wetterkarte
  • News
  • Widgets
  • user-avatar
    Anmelden

    Stündliche Wetter Zabrody

    Heute, 14 August, Dienstag

    Zeit Temperatur Niederschläge Wind Luftdruck Luftfeuchtigkeit
    00:00 +12°C° 0 mm 2 m/S 737 mmHg 95%
    01:00 +10°C° 0 mm 2 m/S 737 mmHg 97%
    02:00 +10°C° 0 mm 2 m/S 737 mmHg 98%
    03:00 +10°C° 0 mm 2 m/S 738 mmHg 97%
    04:00 +11°C° 0 mm 1 m/S 738 mmHg 97%
    05:00 +11°C° 0 mm 1 m/S 738 mmHg 97%
    06:00 +13°C° 0 mm 1 m/S 738 mmHg 90%
    07:00 +15°C° 0 mm 1 m/S 739 mmHg 83%
    08:00 +19°C° 0 mm 1 m/S 739 mmHg 73%
    09:00 +20°C° 0 mm 1 m/S 739 mmHg 66%
    10:00 +21°C° 0 mm 1 m/S 739 mmHg 59%
    11:00 +23°C° 0 mm 2 m/S 739 mmHg 53%
    12:00 +23°C° 0 mm 2 m/S 739 mmHg 51%
    13:00 +24°C° 0 mm 2 m/S 739 mmHg 48%
    14:00 +24°C° 0 mm 2 m/S 739 mmHg 46%
    15:00 +24°C° 0 mm 1 m/S 738 mmHg 50%
    16:00 +24°C° 0 mm 1 m/S 738 mmHg 54%
    17:00 +24°C° 0 mm 1 m/S 738 mmHg 58%
    18:00 +22°C° 0 mm 1 m/S 738 mmHg 66%
    19:00 +20°C° 0 mm 1 m/S 738 mmHg 74%
    20:00 +18°C° 0 mm 1 m/S 738 mmHg 81%
    21:00 +16°C° 0 mm 1 m/S 738 mmHg 85%
    22:00 +16°C° 0 mm 1 m/S 738 mmHg 88%
    23:00 +16°C° 0 mm 1 m/S 738 mmHg 92%

    Morgen, 15 August, Mittwoch

    Zeit Temperatur Niederschläge Wind Luftdruck Luftfeuchtigkeit
    00:00 +16°C° 0 mm 2 m/S 737 mmHg 93%
    01:00 +15°C° 0 mm 2 m/S 737 mmHg 94%
    02:00 +15°C° 0 mm 2 m/S 737 mmHg 95%
    03:00 +16°C° 0,1 mm 2 m/S 736 mmHg 95%
    04:00 +16°C° 0,1 mm 3 m/S 736 mmHg 94%
    05:00 +16°C° 0,1 mm 3 m/S 735 mmHg 93%
    06:00 +18°C° 0,1 mm 3 m/S 735 mmHg 90%
    07:00 +19°C° 0,1 mm 4 m/S 735 mmHg 86%
    08:00 +21°C° 0,1 mm 4 m/S 735 mmHg 83%
    09:00 +21°C° 0,6 mm 4 m/S 735 mmHg 83%
    10:00 +22°C° 0,6 mm 4 m/S 734 mmHg 82%
    11:00 +23°C° 0,6 mm 4 m/S 734 mmHg 82%
    12:00 +23°C° 0,8 mm 4 m/S 734 mmHg 83%
    13:00 +23°C° 0,8 mm 5 m/S 734 mmHg 83%
    14:00 +23°C° 0,8 mm 5 m/S 734 mmHg 84%
    15:00 +23°C° 0,4 mm 4 m/S 734 mmHg 83%
    16:00 +22°C° 0,4 mm 4 m/S 735 mmHg 82%
    17:00 +22°C° 0,4 mm 3 m/S 735 mmHg 81%
    18:00 +21°C° 0,1 mm 3 m/S 735 mmHg 85%
    19:00 +19°C° 0,1 mm 2 m/S 735 mmHg 89%
    20:00 +18°C° 0,1 mm 2 m/S 735 mmHg 93%
    21:00 +17°C° 0 mm 2 m/S 735 mmHg 94%
    22:00 +16°C° 0 mm 1 m/S 736 mmHg 95%
    23:00 +16°C° 0 mm 1 m/S 736 mmHg 96%

    übermorgen, 16 August, Donnerstag

    Zeit Temperatur Niederschläge Wind Luftdruck Luftfeuchtigkeit
    00:00 +15°C° 0 mm 1 m/S 736 mmHg 96%
    01:00 +15°C° 0 mm 1 m/S 736 mmHg 96%
    02:00 +15°C° 0 mm 1 m/S 736 mmHg 97%
    03:00 +15°C° 0 mm 1 m/S 737 mmHg 97%
    04:00 +15°C° 0 mm 1 m/S 737 mmHg 97%
    05:00 +15°C° 0 mm 1 m/S 737 mmHg 97%
    06:00 +16°C° 0 mm 1 m/S 737 mmHg 95%
    07:00 +18°C° 0 mm 1 m/S 738 mmHg 92%
    08:00 +19°C° 0 mm 1 m/S 738 mmHg 89%
    09:00 +19°C° 0,1 mm 1 m/S 739 mmHg 86%
    10:00 +19°C° 0,1 mm 2 m/S 739 mmHg 83%
    11:00 +20°C° 0,1 mm 2 m/S 739 mmHg 80%
    12:00 +20°C° 0,1 mm 2 m/S 739 mmHg 77%
    13:00 +20°C° 0,1 mm 3 m/S 740 mmHg 73%
    14:00 +21°C° 0,1 mm 3 m/S 740 mmHg 70%
    15:00 +20°C° 0 mm 3 m/S 740 mmHg 70%
    16:00 +20°C° 0 mm 3 m/S 740 mmHg 70%
    17:00 +20°C° 0 mm 3 m/S 740 mmHg 70%
    18:00 +19°C° 0 mm 2 m/S 741 mmHg 78%
    19:00 +17°C° 0 mm 2 m/S 741 mmHg 85%
    20:00 +15°C° 0 mm 2 m/S 742 mmHg 92%
    21:00 +15°C° 0 mm 1 m/S 742 mmHg 93%
    22:00 +14°C° 0 mm 1 m/S 742 mmHg 95%
    23:00 +14°C° 0 mm 1 m/S 742 mmHg 96%

    17 August, Freitag

    Zeit Temperatur Niederschläge Wind Luftdruck Luftfeuchtigkeit
    00:00 +13°C° 0 mm 1 m/S 743 mmHg 96%
    01:00 +13°C° 0 mm 2 m/S 743 mmHg 96%
    02:00 +13°C° 0 mm 2 m/S 743 mmHg 96%
    03:00 +12°C° 0 mm 2 m/S 743 mmHg 97%
    04:00 +12°C° 0 mm 2 m/S 743 mmHg 97%
    05:00 +12°C° 0 mm 2 m/S 744 mmHg 97%
    06:00 +14°C° 0 mm 2 m/S 744 mmHg 89%
    07:00 +16°C° 0 mm 2 m/S 744 mmHg 81%
    08:00 +18°C° 0 mm 2 m/S 744 mmHg 74%
    09:00 +19°C° 0 mm 2 m/S 744 mmHg 67%
    10:00 +21°C° 0 mm 2 m/S 744 mmHg 61%
    11:00 +22°C° 0 mm 3 m/S 744 mmHg 54%
    12:00 +22°C° 0 mm 3 m/S 744 mmHg 53%
    13:00 +24°C° 0 mm 2 m/S 744 mmHg 52%
    14:00 +24°C° 0 mm 2 m/S 744 mmHg 51%
    15:00 +24°C° 0 mm 2 m/S 744 mmHg 54%
    16:00 +24°C° 0 mm 2 m/S 743 mmHg 58%
    17:00 +23°C° 0 mm 2 m/S 743 mmHg 62%
    18:00 +20°C° 0 mm 2 m/S 743 mmHg 69%
    19:00 +18°C° 0 mm 2 m/S 743 mmHg 76%
    20:00 +16°C° 0 mm 2 m/S 743 mmHg 83%
    21:00 +15°C° 0 mm 2 m/S 743 mmHg 84%
    22:00 +15°C° 0 mm 2 m/S 743 mmHg 86%
    23:00 +14°C° 0 mm 2 m/S 743 mmHg 88%

    18 August, Samstag

    Zeit Temperatur Niederschläge Wind Luftdruck Luftfeuchtigkeit
    00:00 +14°C° 0 mm 2 m/S 743 mmHg 89%
    01:00 +13°C° 0 mm 2 m/S 743 mmHg 90%
    02:00 +13°C° 0 mm 2 m/S 744 mmHg 92%
    03:00 +13°C° 0 mm 2 m/S 744 mmHg 92%
    04:00 +13°C° 0 mm 2 m/S 743 mmHg 92%
    05:00 +12°C° 0 mm 2 m/S 743 mmHg 93%
    06:00 +14°C° 0 mm 2 m/S 744 mmHg 86%
    07:00 +17°C° 0 mm 2 m/S 744 mmHg 78%
    08:00 +19°C° 0 mm 2 m/S 744 mmHg 71%
    09:00 +20°C° 0 mm 2 m/S 744 mmHg 65%
    10:00 +22°C° 0 mm 3 m/S 743 mmHg 60%
    11:00 +25°C° 0 mm 3 m/S 743 mmHg 55%
    12:00 +25°C° 0 mm 3 m/S 743 mmHg 54%
    13:00 +26°C° 0 mm 3 m/S 743 mmHg 54%
    14:00 +26°C° 0 mm 3 m/S 742 mmHg 53%
    15:00 +26°C° 0 mm 3 m/S 742 mmHg 56%
    16:00 +25°C° 0 mm 3 m/S 742 mmHg 60%
    17:00 +25°C° 0 mm 2 m/S 742 mmHg 64%
    18:00 +23°C° 0 mm 2 m/S 742 mmHg 71%
    19:00 +20°C° 0 mm 2 m/S 742 mmHg 78%
    20:00 +18°C° 0 mm 2 m/S 741 mmHg 85%
    21:00 +18°C° 0 mm 2 m/S 741 mmHg 86%
    22:00 +17°C° 0 mm 2 m/S 741 mmHg 87%
    23:00 +17°C° 0 mm 2 m/S 741 mmHg 88%

    19 August, Sonntag

    Zeit Temperatur Niederschläge Wind Luftdruck Luftfeuchtigkeit
    00:00 +16°C° 0 mm 2 m/S 741 mmHg 89%
    01:00 +16°C° 0 mm 2 m/S 741 mmHg 91%
    02:00 +16°C° 0 mm 2 m/S 741 mmHg 92%
    03:00 +15°C° 0,1 mm 2 m/S 740 mmHg 93%
    04:00 +15°C° 0,1 mm 2 m/S 740 mmHg 95%
    05:00 +15°C° 0,1 mm 2 m/S 740 mmHg 96%
    06:00 +16°C° 0 mm 2 m/S 740 mmHg 93%
    07:00 +18°C° 0 mm 2 m/S 740 mmHg 90%
    08:00 +19°C° 0 mm 2 m/S 740 mmHg 88%
    09:00 +19°C° 0,1 mm 2 m/S 740 mmHg 87%
    10:00 +20°C° 0,1 mm 2 m/S 740 mmHg 85%
    11:00 +21°C° 0,1 mm 2 m/S 739 mmHg 84%
    12:00 +23°C° 0 mm 2 m/S 739 mmHg 80%
    13:00 +24°C° 0 mm 2 m/S 739 mmHg 75%
    14:00 +25°C° 0 mm 2 m/S 739 mmHg 70%
    15:00 +24°C° 0,5 mm 2 m/S 739 mmHg 74%
    16:00 +24°C° 0,5 mm 2 m/S 739 mmHg 79%
    17:00 +24°C° 0,5 mm 2 m/S 739 mmHg 83%
    18:00 +21°C° 0,3 mm 2 m/S 739 mmHg 87%
    19:00 +20°C° 0,3 mm 2 m/S 739 mmHg 90%
    20:00 +19°C° 0,3 mm 1 m/S 739 mmHg 94%
    21:00 +18°C° 0 mm 1 m/S 739 mmHg 94%
    22:00 +16°C° 0 mm 1 m/S 739 mmHg 94%
    23:00 +16°C° 0 mm 1 m/S 739 mmHg 94%
    Mehr zeigen